Time,TemperatureF,DewpointF,PressureIn,WindDirection,WindDirectionDegrees,WindSpeedMPH,WindSpeedGustMPH,Humidity,HourlyPrecipIn,Conditions,Clouds,dailyrainin,SoftwareType,DateUTC
2013-02-01 00:02:00,5.0,0.0,30.18,WNW,300,9.0,19.0,79,0.00,,,0.00,,2013-02-01 06:02:00,
2013-02-01 00:11:00,5.0,0.0,30.18,WNW,300,9.0,19.0,79,0.00,,,0.00,,2013-02-01 06:11:00,
2013-02-01 00:22:00,4.0,-1.0,30.19,NW,309,8.0,15.0,79,0.00,,,0.00,,2013-02-01 06:22:00,
2013-02-01 00:32:00,4.0,-1.0,30.19,WNW,297,10.0,18.0,79,0.00,,,0.00,,2013-02-01 06:32:00,
2013-02-01 00:42:00,4.0,-1.0,30.19,WNW,297,10.0,18.0,79,0.00,,,0.00,,2013-02-01 06:42:00,
2013-02-01 00:52:00,4.0,-1.0,30.20,WNW,288,10.0,17.0,79,0.00,,,0.00,,2013-02-01 06:52:00,
2013-02-01 01:01:00,4.0,-1.0,30.20,West,269,9.0,15.0,79,0.00,,,0.00,,2013-02-01 07:01:00,
2013-02-01 01:12:00,4.0,-1.0,30.21,WNW,288,9.0,17.0,79,0.00,,,0.00,,2013-02-01 07:12:00,
2013-02-01 01:22:00,4.0,-1.0,30.21,WNW,288,9.0,17.0,79,0.00,,,0.00,,2013-02-01 07:22:00,
2013-02-01 01:32:00,4.0,-1.0,30.22,West,280,8.0,18.0,80,0.00,,,0.00,,2013-02-01 07:32:00,
2013-02-01 01:42:00,4.0,-1.0,30.22,West,280,8.0,18.0,80,0.00,,,0.00,,2013-02-01 07:42:00,
2013-02-01 01:52:00,3.0,-2.0,30.22,WNW,289,6.0,15.0,80,0.00,,,0.00,,2013-02-01 07:52:00,
2013-02-01 02:01:00,3.0,-2.0,30.23,WNW,291,8.0,18.0,80,0.00,,,0.00,,2013-02-01 08:01:00,
2013-02-01 02:11:00,3.0,-2.0,30.23,WNW,291,8.0,18.0,80,0.00,,,0.00,,2013-02-01 08:11:00,
2013-02-01 02:21:00,3.0,-2.0,30.24,NW,307,9.0,14.0,80,0.00,,,0.00,,2013-02-01 08:21:00,
2013-02-01 02:31:00,3.0,-1.0,30.25,WNW,290,8.0,18.0,81,0.00,,,0.00,,2013-02-01 08:31:00,
2013-02-01 02:42:00,3.0,-1.0,30.25,WNW,290,8.0,18.0,81,0.00,,,0.00,,2013-02-01 08:42:00,
2013-02-01 02:52:00,3.0,-2.0,30.26,NNW,329,9.0,18.0,80,0.00,,,0.00,,2013-02-01 08:52:00,
2013-02-01 03:01:00,3.0,-1.0,30.27,NW,304,9.0,18.0,81,0.00,,,0.00,,2013-02-01 09:01:00,
2013-02-01 03:11:00,3.0,-1.0,30.27,NW,304,9.0,18.0,81,0.00,,,0.00,,2013-02-01 09:11:00,
2013-02-01 03:21:00,3.0,-1.0,30.27,West,278,8.0,16.0,82,0.00,,,0.00,,2013-02-01 09:21:00,
2013-02-01 03:32:00,2.0,-2.0,30.27,WNW,285,9.0,16.0,82,0.00,,,0.00,,2013-02-01 09:32:00,
2013-02-01 03:41:00,2.0,-2.0,30.27,WNW,285,9.0,16.0,82,0.00,,,0.00,,2013-02-01 09:41:00,
2013-02-01 03:52:00,2.0,-2.0,30.28,WSW,246,6.0,12.0,83,0.00,,,0.00,,2013-02-01 09:52:00,
2013-02-01 04:01:00,2.0,-2.0,30.29,WNW,283,9.0,18.0,82,0.00,,,0.00,,2013-02-01 10:01:00,
2013-02-01 04:11:00,2.0,-2.0,30.29,WNW,283,9.0,18.0,82,0.00,,,0.00,,2013-02-01 10:11:00,
2013-02-01 04:21:00,2.0,-2.0,30.29,WNW,294,8.0,17.0,81,0.00,,,0.00,,2013-02-01 10:21:00,
2013-02-01 04:31:00,2.0,-2.0,30.29,WNW,295,9.0,16.0,81,0.00,,,0.00,,2013-02-01 10:31:00,
2013-02-01 04:42:00,2.0,-2.0,30.29,WNW,295,9.0,16.0,81,0.00,,,0.00,,2013-02-01 10:42:00,
2013-02-01 04:53:00,2.0,-2.0,30.30,WNW,289,9.0,17.0,81,0.00,,,0.00,,2013-02-01 10:53:00,
2013-02-01 05:01:00,2.0,-2.0,30.31,WNW,289,6.0,14.0,81,0.00,,,0.00,,2013-02-01 11:01:00,
2013-02-01 05:11:00,2.0,-2.0,30.31,WNW,289,6.0,14.0,81,0.00,,,0.00,,2013-02-01 11:11:00,
2013-02-01 05:22:00,1.0,-3.0,30.30,WNW,287,10.0,15.0,82,0.00,,,0.00,,2013-02-01 11:22:00,
2013-02-01 05:32:00,1.0,-3.0,30.31,West,278,9.0,14.0,81,0.00,,,0.00,,2013-02-01 11:32:00,
2013-02-01 05:41:00,1.0,-3.0,30.31,West,278,9.0,14.0,81,0.00,,,0.00,,2013-02-01 11:41:00,
2013-02-01 05:53:00,1.0,-3.0,30.31,WNW,294,8.0,14.0,83,0.00,,,0.00,,2013-02-01 11:53:00,
2013-02-01 06:02:00,1.0,-3.0,30.31,WNW,288,7.0,15.0,82,0.00,,,0.00,,2013-02-01 12:02:00,
2013-02-01 06:12:00,1.0,-3.0,30.31,WNW,288,7.0,15.0,82,0.00,,,0.00,,2013-02-01 12:12:00,
2013-02-01 06:22:00,1.0,-3.0,30.31,WNW,285,8.0,12.0,82,0.00,,,0.00,,2013-02-01 12:22:00,
2013-02-01 06:32:00,1.0,-3.0,30.32,WNW,294,7.0,11.0,82,0.00,,,0.00,,2013-02-01 12:32:00,
2013-02-01 06:42:00,1.0,-3.0,30.32,WNW,294,7.0,11.0,82,0.00,,,0.00,,2013-02-01 12:42:00,
2013-02-01 06:52:00,1.0,-3.0,30.32,WNW,291,6.0,12.0,83,0.00,,,0.00,,2013-02-01 12:52:00,
2013-02-01 07:02:00,1.0,-3.0,30.32,WNW,291,5.0,11.0,82,0.00,,,0.00,,2013-02-01 13:02:00,
2013-02-01 07:11:00,1.0,-3.0,30.32,WNW,291,5.0,11.0,82,0.00,,,0.00,,2013-02-01 13:11:00,
2013-02-01 07:22:00,0.0,-4.0,30.34,West,259,5.0,9.0,82,0.00,,,0.00,,2013-02-01 13:22:00,
2013-02-01 07:32:00,0.0,-4.0,30.34,WNW,290,7.0,12.0,82,0.00,,,0.00,,2013-02-01 13:32:00,
2013-02-01 07:42:00,0.0,-4.0,30.34,WNW,290,7.0,12.0,82,0.00,,,0.00,,2013-02-01 13:42:00,
2013-02-01 07:53:00,1.0,-3.0,30.34,WSW,245,7.0,11.0,82,0.00,,,0.00,,2013-02-01 13:53:00,
2013-02-01 08:03:00,1.0,-3.0,30.35,WNW,283,7.0,13.0,82,0.00,,,0.00,,2013-02-01 14:03:00,
2013-02-01 08:11:00,1.0,-3.0,30.35,WNW,288,6.0,13.0,81,0.00,,,0.00,,2013-02-01 14:11:00,
2013-02-01 08:21:00,1.0,-3.0,30.35,WNW,288,6.0,13.0,81,0.00,,,0.00,,2013-02-01 14:21:00,
2013-02-01 08:32:00,2.0,-3.0,30.36,West,273,7.0,14.0,80,0.00,,,0.00,,2013-02-01 14:32:00,
2013-02-01 08:42:00,2.0,-3.0,30.36,West,273,7.0,14.0,80,0.00,,,0.00,,2013-02-01 14:42:00,
2013-02-01 08:53:00,2.0,-2.0,30.36,West,278,6.0,12.0,81,0.00,,,0.00,,2013-02-01 14:53:00,
2013-02-01 09:02:00,3.0,-2.0,30.36,West,262,8.0,13.0,80,0.00,,,0.00,,2013-02-01 15:02:00,
2013-02-01 09:12:00,3.0,-1.0,30.36,West,270,6.0,12.0,81,0.00,,,0.00,,2013-02-01 15:12:00,
2013-02-01 09:21:00,3.0,-1.0,30.36,West,270,6.0,12.0,81,0.00,,,0.00,,2013-02-01 15:21:00,
2013-02-01 09:32:00,4.0,-1.0,30.36,WNW,293,7.0,12.0,80,0.00,,,0.00,,2013-02-01 15:32:00,
2013-02-01 09:42:00,4.0,-1.0,30.36,WNW,293,7.0,12.0,80,0.00,,,0.00,,2013-02-01 15:42:00,
2013-02-01 09:52:00,4.0,-1.0,30.37,West,267,7.0,13.0,79,0.00,,,0.00,,2013-02-01 15:52:00,
2013-02-01 10:02:00,4.0,-2.0,30.38,West,278,8.0,13.0,77,0.00,,,0.00,,2013-02-01 16:02:00,
2013-02-01 10:11:00,4.0,-2.0,30.38,WNW,301,8.0,13.0,77,0.00,,,0.00,,2013-02-01 16:11:00,
2013-02-01 10:22:00,4.0,-2.0,30.38,WNW,301,8.0,13.0,77,0.00,,,0.00,,2013-02-01 16:22:00,
2013-02-01 10:33:00,5.0,-1.0,30.38,West,276,6.0,14.0,77,0.00,,,0.00,,2013-02-01 16:33:00,
2013-02-01 10:42:00,6.0,0.0,30.39,West,269,7.0,11.0,77,0.00,,,0.00,,2013-02-01 16:42:00,
2013-02-01 10:52:00,6.0,0.0,30.39,West,269,7.0,11.0,77,0.00,,,0.00,,2013-02-01 16:52:00,
2013-02-01 11:02:00,7.0,1.0,30.39,WSW,255,8.0,11.0,77,0.00,,,0.00,,2013-02-01 17:02:00,
2013-02-01 11:11:00,8.0,1.0,30.38,WNW,295,6.0,14.0,74,0.00,,,0.00,,2013-02-01 17:11:00,
2013-02-01 11:22:00,8.0,1.0,30.38,WNW,295,6.0,14.0,74,0.00,,,0.00,,2013-02-01 17:22:00,
2013-02-01 11:32:00,8.0,2.0,30.38,SW,230,5.0,13.0,76,0.00,,,0.00,,2013-02-01 17:32:00,
2013-02-01 11:42:00,8.0,2.0,30.38,SW,230,5.0,13.0,76,0.00,,,0.00,,2013-02-01 17:42:00,
2013-02-01 11:53:00,8.0,2.0,30.38,West,260,7.0,13.0,75,0.00,,,0.00,,2013-02-01 17:53:00,
2013-02-01 12:02:00,9.0,3.0,30.37,West,278,5.0,15.0,75,0.00,,,0.00,,2013-02-01 18:02:00,
2013-02-01 12:12:00,9.0,3.0,30.37,West,278,5.0,15.0,75,0.00,,,0.00,,2013-02-01 18:12:00,
2013-02-01 12:22:00,9.0,2.0,30.36,West,264,7.0,13.0,74,0.00,,,0.00,,2013-02-01 18:22:00,
2013-02-01 12:32:00,10.0,3.0,30.36,West,264,7.0,10.0,74,0.00,,,0.00,,2013-02-01 18:32:00,
2013-02-01 12:42:00,10.0,3.0,30.36,West,264,7.0,10.0,74,0.00,,,0.00,,2013-02-01 18:42:00,
2013-02-01 12:53:00,10.0,3.0,30.35,WSW,249,8.0,13.0,74,0.00,,,0.00,,2013-02-01 18:53:00,
2013-02-01 13:02:00,11.0,4.0,30.35,West,274,6.0,12.0,73,0.00,,,0.00,,2013-02-01 19:02:00,
2013-02-01 13:11:00,11.0,4.0,30.35,West,274,6.0,12.0,73,0.00,,,0.00,,2013-02-01 19:11:00,
2013-02-01 13:21:00,11.0,3.0,30.35,WSW,253,7.0,16.0,71,0.00,,,0.00,,2013-02-01 19:21:00,
2013-02-01 13:32:00,12.0,4.0,30.34,WSW,248,6.0,14.0,71,0.00,,,0.00,,2013-02-01 19:32:00,
2013-02-01 13:41:00,12.0,4.0,30.34,WSW,248,6.0,14.0,71,0.00,,,0.00,,2013-02-01 19:41:00,
2013-02-01 13:52:00,13.0,5.0,30.34,WSW,252,6.0,13.0,70,0.00,,,0.00,,2013-02-01 19:52:00,
2013-02-01 14:02:00,13.0,5.0,30.34,West,273,6.0,16.0,71,0.00,,,0.00,,2013-02-01 20:02:00,
2013-02-01 14:11:00,12.0,5.0,30.33,WNW,285,6.0,12.0,72,0.00,,,0.00,,2013-02-01 20:11:00,
2013-02-01 14:21:00,12.0,5.0,30.33,WNW,285,6.0,12.0,72,0.00,,,0.00,,2013-02-01 20:21:00,
2013-02-01 14:31:00,13.0,5.0,30.32,West,273,7.0,12.0,70,0.00,,,0.00,,2013-02-01 20:31:00,
2013-02-01 14:41:00,13.0,6.0,30.32,West,276,8.0,18.0,73,0.00,,,0.00,,2013-02-01 20:41:00,
2013-02-01 14:52:00,13.0,6.0,30.32,West,276,8.0,18.0,73,0.00,,,0.00,,2013-02-01 20:52:00,
2013-02-01 15:02:00,14.0,6.0,30.31,West,266,5.0,11.0,70,0.00,,,0.00,,2013-02-01 21:02:00,
2013-02-01 15:11:00,14.0,6.0,30.31,West,266,5.0,11.0,70,0.00,,,0.00,,2013-02-01 21:11:00,
2013-02-01 15:21:00,15.0,7.0,30.31,SW,232,6.0,9.0,70,0.00,,,0.00,,2013-02-01 21:21:00,
2013-02-01 15:32:00,14.0,6.0,30.31,West,259,8.0,13.0,69,0.00,,,0.00,,2013-02-01 21:32:00,
2013-02-01 15:41:00,14.0,6.0,30.31,West,259,8.0,13.0,69,0.00,,,0.00,,2013-02-01 21:41:00,
2013-02-01 15:52:00,14.0,6.0,30.31,SW,224,5.0,10.0,70,0.00,,,0.00,,2013-02-01 21:52:00,
2013-02-01 16:02:00,14.0,6.0,30.31,WSW,253,6.0,15.0,69,0.00,,,0.00,,2013-02-01 22:02:00,
2013-02-01 16:11:00,14.0,6.0,30.31,WSW,253,6.0,15.0,69,0.00,,,0.00,,2013-02-01 22:11:00,
2013-02-01 16:21:00,14.0,5.0,30.31,West,262,7.0,14.0,67,0.00,,,0.00,,2013-02-01 22:21:00,
2013-02-01 16:32:00,14.0,6.0,30.31,SW,226,6.0,11.0,70,0.00,,,0.00,,2013-02-01 22:32:00,
2013-02-01 16:42:00,14.0,6.0,30.31,SW,226,6.0,11.0,70,0.00,,,0.00,,2013-02-01 22:42:00,
2013-02-01 16:52:00,14.0,6.0,30.31,SW,231,7.0,11.0,69,0.00,,,0.00,,2013-02-01 22:52:00,
2013-02-01 17:01:00,13.0,5.0,30.30,SW,222,4.0,13.0,71,0.00,,,0.00,,2013-02-01 23:01:00,
2013-02-01 17:11:00,13.0,5.0,30.30,SW,222,4.0,13.0,71,0.00,,,0.00,,2013-02-01 23:11:00,
2013-02-01 17:21:00,13.0,6.0,30.30,WSW,245,3.0,10.0,73,0.00,,,0.00,,2013-02-01 23:21:00,
2013-02-01 17:31:00,12.0,6.0,30.29,West,274,4.0,6.0,75,0.00,,,0.00,,2013-02-01 23:31:00,
2013-02-01 17:41:00,12.0,6.0,30.29,West,274,4.0,6.0,75,0.00,,,0.00,,2013-02-01 23:41:00,
2013-02-01 17:52:00,12.0,6.0,30.29,SW,228,2.0,6.0,76,0.00,,,0.00,,2013-02-01 23:52:00,
2013-02-01 18:02:00,12.0,6.0,30.29,West,269,2.0,5.0,78,0.00,,,0.00,,2013-02-02 00:02:00,
2013-02-01 18:11:00,12.0,6.0,30.29,West,269,2.0,5.0,78,0.00,,,0.00,,2013-02-02 00:11:00,
2013-02-01 18:21:00,11.0,6.0,30.30,WSW,243,2.0,5.0,78,0.00,,,0.00,,2013-02-02 00:21:00,
2013-02-01 18:32:00,11.0,6.0,30.30,WSW,243,2.0,5.0,78,0.00,,,0.00,,2013-02-02 00:32:00,
2013-02-01 18:41:00,11.0,6.0,30.30,WSW,243,2.0,5.0,78,0.00,,,0.00,,2013-02-02 00:41:00,
2013-02-01 18:52:00,11.0,6.0,30.29,SW,222,2.0,4.0,80,0.00,,,0.00,,2013-02-02 00:52:00,
2013-02-01 19:02:00,11.0,6.0,30.28,SW,228,3.0,4.0,80,0.00,,,0.00,,2013-02-02 01:02:00,
2013-02-01 19:11:00,11.0,6.0,30.28,SW,228,3.0,4.0,80,0.00,,,0.00,,2013-02-02 01:11:00,
2013-02-01 19:21:00,12.0,7.0,30.28,SW,229,3.0,4.0,80,0.00,,,0.00,,2013-02-02 01:21:00,
2013-02-01 19:32:00,13.0,8.0,30.29,SW,231,3.0,5.0,80,0.00,,,0.00,,2013-02-02 01:32:00,
2013-02-01 19:41:00,13.0,8.0,30.29,SW,231,3.0,5.0,80,0.00,,,0.00,,2013-02-02 01:41:00,
2013-02-01 19:52:00,13.0,7.0,30.27,SW,233,4.0,7.0,78,0.00,,,0.00,,2013-02-02 01:52:00,
2013-02-01 20:01:00,14.0,8.0,30.27,SW,228,5.0,7.0,78,0.00,,,0.00,,2013-02-02 02:01:00,
2013-02-01 20:11:00,14.0,8.0,30.27,SW,228,5.0,7.0,78,0.00,,,0.00,,2013-02-02 02:11:00,
2013-02-01 20:21:00,14.0,9.0,30.26,SSW,205,3.0,8.0,79,0.00,,,0.00,,2013-02-02 02:21:00,
2013-02-01 20:31:00,14.0,8.0,30.25,SSW,194,5.0,10.0,78,0.00,,,0.00,,2013-02-02 02:31:00,
2013-02-01 20:42:00,14.0,8.0,30.25,SSW,194,5.0,10.0,78,0.00,,,0.00,,2013-02-02 02:42:00,
2013-02-01 20:52:00,15.0,9.0,30.24,SSW,195,6.0,9.0,77,0.00,,,0.00,,2013-02-02 02:52:00,
2013-02-01 21:02:00,15.0,9.0,30.24,SSW,205,8.0,12.0,76,0.00,,,0.00,,2013-02-02 03:02:00,
2013-02-01 21:11:00,16.0,10.0,30.24,SW,222,7.0,11.0,76,0.00,,,0.00,,2013-02-02 03:11:00,
2013-02-01 21:21:00,16.0,10.0,30.24,SW,222,7.0,11.0,76,0.00,,,0.00,,2013-02-02 03:21:00,
2013-02-01 21:32:00,16.0,10.0,30.24,SSW,207,6.0,9.0,76,0.00,,,0.00,,2013-02-02 03:32:00,
2013-02-01 21:42:00,16.0,10.0,30.24,SW,225,6.0,9.0,77,0.00,,,0.00,,2013-02-02 03:42:00,
2013-02-01 21:52:00,16.0,10.0,30.24,SW,225,6.0,9.0,77,0.00,,,0.00,,2013-02-02 03:52:00,
2013-02-01 22:01:00,16.0,10.0,30.24,SW,225,5.0,11.0,77,0.00,,,0.00,,2013-02-02 04:01:00,
2013-02-01 22:11:00,16.0,10.0,30.24,SW,225,5.0,11.0,77,0.00,,,0.00,,2013-02-02 04:11:00,
2013-02-01 22:21:00,17.0,11.0,30.23,SSW,205,4.0,8.0,78,0.00,,,0.00,,2013-02-02 04:21:00,
2013-02-01 22:32:00,17.0,12.0,30.22,WSW,239,3.0,9.0,79,0.00,,,0.00,,2013-02-02 04:32:00,
2013-02-01 22:41:00,17.0,12.0,30.22,WSW,239,3.0,9.0,79,0.00,,,0.00,,2013-02-02 04:41:00,
2013-02-01 22:52:00,17.0,12.0,30.22,SSW,213,5.0,8.0,80,0.00,,,0.00,,2013-02-02 04:52:00,
2013-02-01 23:03:00,17.0,12.0,30.22,SW,231,4.0,8.0,82,0.00,,,0.00,,2013-02-02 05:03:00,
2013-02-01 23:12:00,17.0,12.0,30.22,SW,231,4.0,8.0,82,0.00,,,0.00,,2013-02-02 05:12:00,
2013-02-01 23:22:00,17.0,13.0,30.22,WSW,238,5.0,8.0,85,0.00,,,0.00,,2013-02-02 05:22:00,
2013-02-01 23:33:00,17.0,14.0,30.22,WSW,241,5.0,8.0,88,0.00,,,0.00,,2013-02-02 05:33:00,
2013-02-01 23:41:00,17.0,14.0,30.22,WSW,241,5.0,8.0,88,0.00,,,0.00,,2013-02-02 05:41:00,
2013-02-01 23:52:00,17.0,14.0,30.22,SW,233,3.0,7.0,89,0.00,,,0.00,,2013-02-02 05:52:00,